Regional Weather Roundup
Issued by NWS

Home | Current Version | Previous Version | Text Only | Print | Product List | Glossary Off
Versions: 1 2 3 4 5 6 7 8 9 10 11 12 13 14 15 16 17 18 19 20 21 22 23 24 25 26 27 28 29 30 31 32 33 34 35 36 37 38 39 40 41 42 43 44 45 46 47 48 49 50

000
ASUS43 KLOT 062300
RWRIL

ILLINOIS REGIONAL WEATHER ROUNDUP
NATIONAL WEATHER SERVICE CHICAGO/ROMEOVILLE IL
600 PM CDT WED MAY 06 2015

NOTE: "FAIR" INDICATES FEW OR NO CLOUDS BELOW 12,000 FEET WITH NO
SIGNIFICANT WEATHER AND/OR OBSTRUCTIONS TO VISIBILITY.

* THESE STATIONS ARE NOT UNDER NWS QUALITY CONTROL. THEY ALSO MAY NOT
  REPORT WEATHER SUCH AS PRECIPITATION OR FOG.

ILZ001-002-007-009-015-016-024-070000-
NORTHWEST ILLINOIS

CITY           SKY/WX    TMP DP  RH WIND       PRES   REMARKS
MOLINE         PTSUNNY   81  52  36 S12       29.98S HX  80
STERLING*      PTSUNNY   82  54  36 S6        30.01F HX  81
$$

ILZ003-004-008-010-011-017-018-070000-
NORTH CENTRAL ILLINOIS

CITY           SKY/WX    TMP DP  RH WIND       PRES   REMARKS
ROCKFORD       MOSUNNY   80  53  39 S13       30.05S HX  80
$$

ILZ005-006-012>014-019>023-070000-
NORTHEAST ILLINOIS

CITY           SKY/WX    TMP DP  RH WIND       PRES   REMARKS
CHICAGO-OHARE  PTSUNNY   68  55  63 E9        30.07F
CHICAGO-MIDWAY PTSUNNY   67  56  67 E10       30.07F
AURORA         MOSUNNY   81  52  36 S10       30.05S HX  80
WAUKEGAN       MOSUNNY   58  53  84 NE8       30.09F
DUPAGE AIRPORT MOSUNNY   75  60  59 E12       30.05F
WHEELING       SUNNY     61  53  75 E6        30.10F HAZE
NORTHERLY ISL    N/A     53  49  86 N7          N/A
$$

LMZ740>746-070000-
SOUTHERN LAKE MICHIGAN

STATION/POSITION SKY/WX   TEMP    WIND        PRES    VSBY  WAVE
                          AIR SEA DIR/SP/G                  HT/PER
                          (F)     (DEG/KT/KT) (MB)    (MI)  (FT/S)
HARRISON CRIB              46     340/  8/  8   N/A
BURNHAM HARBOR             53      10/  5/  8   N/A
CALUMET HARBOR             52     350/  5/  6   N/A
BURNS HARBOR               58      70/ 11/ 13 1019.3F
MICHIGAN CITY              58      40/ 13/ 14   N/A
MICHIGAN CITY 6N           54 54   80/  8/ 10   N/A           1
ST. JOSEPH                 56 52   50/ 10/ 10   N/A           1
$$

ILZ025>027-034>036-040-047-049-050-058-095>099-070000-
WEST-CENTRAL ILLINOIS

CITY           SKY/WX    TMP DP  RH WIND       PRES   REMARKS
QUINCY         MOSUNNY   77  57  50 S7        29.98F
$$

ILZ028>032-037-038-041>044-048-051>054-059>061-070000-
CENTRAL ILLINOIS

CITY           SKY/WX    TMP DP  RH WIND       PRES   REMARKS
DECATUR        MOSUNNY   84  51  31 S12       30.04F HX  82
PEORIA         MOSUNNY   84  51  31 S16G24    30.01F HX  82
SPRINGFIELD    SUNNY     85  50  29 S16G24    30.02S HX  83
TAYLORVILLE    NOT AVBL
$$

ILZ033-039-045-046-055>057-062-063-070000-
EAST-CENTRAL ILLINOIS

CITY           SKY/WX    TMP DP  RH WIND       PRES   REMARKS
CHAMPAIGN      PTSUNNY   86  47  25 S17       30.05F HX  83
MATTOON        MOSUNNY   82  51  34 S14       30.05F HX  81
$$

ILZ079-100>102-070000-
SOUTHWEST ILLINOIS

CITY           SKY/WX    TMP DP  RH WIND       PRES   REMARKS
ALTON          MOSUNNY   82  54  36 S14       30.02F HX  81
CAHOKIA*       SUNNY     84  51  31 S12G21    30.01F HX  82
$$

ILZ064>066-069>071-074>076-080>082-084>086-088>090-092>094-070000-
SOUTH-CENTRAL ILLINOIS

CITY           SKY/WX    TMP DP  RH WIND       PRES   REMARKS
CARBONDALE     SUNNY     83  54  36 S13       30.04F HX  82
MARION         MOSUNNY   82  57  42 S12       30.05F HX  82
MT. VERNON     SUNNY    N/A N/A N/A S8        30.06S
$$

ILZ067-068-072-073-078-083-087-091-070000-
SOUTHEAST ILLINOIS

CITY           SKY/WX    TMP DP  RH WIND       PRES   REMARKS
LAWRENCEVILLE  MOSUNNY   84  55  36 VRB7      30.06F HX  83
$$

ABBREVIATIONS USED IN REMARKS
   TC - TEMPERATURE IN CELSIUS
  WCI - WIND CHILL INDEX
   HX - HEAT INDEX
  VSB - VISIBILITY
$$



USA.gov is the U.S. government's official web portal to all federal, state and local government web resources and services.